Regional Weather Roundup
Issued by NWS

Home | Current Version | Previous Version | Text Only | Print | Product List | Glossary Off
Versions: 1 2 3 4 5 6 7 8 9 10 11 12 13 14 15 16 17 18 19 20 21 22 23 24 25 26 27 28 29 30 31 32 33 34 35 36 37 38 39 40 41 42 43 44 45 46 47 48 49 50

000
ASUS43 KOAX 280202
RWRNE

WEATHER ROUNDUP FOR NEBRASKA
NATIONAL WEATHER SERVICE OMAHA NE
900 PM CDT WED JUL 27 2016

NOTES: SATELLITE DATA IS BEING USED TO AUGMENT CLOUD COVER ABOVE
       12000 FEET.
       "FAIR" INDICATES FEW OR NO CLOUDS BELOW 12,000 FEET WITH NO
       SIGNIFICANT WEATHER AND/OR OBSTRUCTIONS TO VISIBILITY.

  * THESE STATIONS DO NOT REPORT WEATHER SUCH AS RAIN...SNOW OR FOG.

NEZ001>004-019>022-054>056-280300-
NEBRASKA PANHANDLE

CITY           SKY/WX    TMP DP  RH WIND       PRES   REMARKS
SCOTTSBLUFF    CLEAR     78  55  44 E8        30.11R
ALLIANCE       CLEAR     74  58  57 E13       30.12R
CHADRON        MOCLDY    76  56  49 NE9       30.11R
SIDNEY         CLOUDY    67  62  84 S24G36    30.16S THUNDER
$$

NEZ057>060-069>072-079>082-280300-
SOUTHWEST NEBRASKA

CITY           SKY/WX    TMP DP  RH WIND       PRES   REMARKS
NORTH PLATTE   CLOUDY    74  61  63 NE8       30.09R
IMPERIAL       PTCLDY    78  59  51 NE9       30.09R
LEXINGTON      CLEAR     78  69  74 SE5       30.05S
MCCOOK         CLOUDY    79  65  62 E9        30.05R
OGALLALA       PTCLDY    79  61  53 E3        30.11R
$$

NEZ005>010-023>029-035>040-094-280300-
NORTH CENTRAL NEBRASKA

CITY           SKY/WX    TMP DP  RH WIND       PRES   REMARKS
VALENTINE      CLOUDY    68  59  73 MISG      30.12R
AINSWORTH      MOCLDY    68  66  92 N8G17     30.12R
BROKEN BOW     PTCLDY    69  65  86 N6        30.06R
O`NEILL        LGT RAIN  68  63  85 NW16      30.07R
ORD            MOCLDY    71  63  75 NE3       30.02F
THEDFORD       PTCLDY    70  59  68 E5        30.12R
$$

NEZ041-046>049-061>064-073>077-083>087-280300-
SOUTH CENTRAL NEBRASKA

CITY           SKY/WX    TMP DP  RH WIND       PRES   REMARKS
GRAND ISLAND   CLEAR     77  68  73 E5        30.02S
AURORA         CLEAR     74  71  90 N3        30.02R
HASTINGS       CLEAR     77  69  76 N6        30.04R
HEBRON         CLEAR     81  67  63 N6        30.00R
HOLDREGE       MOCLDY    75  71  86 NE3       30.06R
KEARNEY *      PTCLDY    79  18  10 NE5       30.05R
YORK           CLEAR     73  68  83 NW6       30.01S
$$

NEZ011>018-030>034-042>045-280300-
NORTHEAST NEBRASKA

CITY           SKY/WX    TMP DP  RH WIND       PRES   REMARKS
NORFOLK        LGT RAIN  70  63  78 N8G25     30.02R
ALBION         CLOUDY    71  62  74 N5        30.05R
BLAIR          CLOUDY    78  69  73 NW7       29.98R
FREMONT        PTCLDY    78  67  69 CALM      29.99R
TEKAMAH        CLEAR     76  69  79 NW8       29.97R
WAYNE          CLOUDY    78  65  63 W20G29    30.03R
$$

NEZ050>053-065>068-078-088>093-280300-
SOUTHEAST NEBRASKA

CITY           SKY/WX    TMP DP  RH WIND       PRES   REMARKS
LINCOLN        CLEAR     79  69  71 N8        29.98R
OMAHA EPPLEY   CLOUDY    77  71  82 NW6       29.95R
BEATRICE       CLEAR     76  70  80 NW6       29.97R
FALLS CITY     CLEAR     80  71  74 N3        29.92R
NEBRASKA CITY  CLEAR     77  69  77 NW3       29.96R
PLATTSMOUTH    CLEAR     78  71  78 CALM      29.96R
$$

NEZ044-045-051>053-067-280300-
OMAHA AREA

CITY           SKY/WX    TMP DP  RH WIND       PRES   REMARKS
OMAHA EPPLEY   CLOUDY    77  71  82 NW6       29.95R
BLAIR          CLOUDY    78  69  73 NW7       29.98R
FREMONT        PTCLDY    78  67  69 CALM      29.99R
MILLARD        CLEAR     82  70  66 N5        29.96R
OFFUTT AFB     CLEAR     79  70  73 N7        29.95R
PLATTSMOUTH    CLEAR     78  71  78 CALM      29.96R
WAHOO          FAIR      75  69  81 NW5       29.97R
$$



USA.gov is the U.S. government's official web portal to all federal, state and local government web resources and services.